{"data":{"norad_id":68252,"intl_designator":"2026-054W","name":"STARLINK-37085","alt_names":[],"object_type":"PAYLOAD","status":"ACTIVE","operator":null,"country":"US","launch_date":"2026-03-17","launch_site_code":"AFETR","launch_vehicle":null,"mission":null,"orbit_class":"UNKNOWN","rcs_meters":null,"size_class":null,"mass_kg":null,"dimensions":null,"purposes":["comms"],"wikipedia_slug":null,"has_3d_model":false,"image_url":null,"decayed_at":null,"tle_current":{"epoch":"2026-05-25T03:06:47.772576Z","epoch_age_seconds":54018,"freshness":"FRESH","line1":"1 68252U 26054W   26145.12971959  .00049633  00000+0  89352-3 0  9995","line2":"2 68252  53.1583 297.6603 0002216  87.4690 272.6573 15.49348268 10753","mean_motion":15.49348268,"eccentricity":0.0002216,"inclination_deg":53.1583,"raan_deg":297.6603,"arg_perigee_deg":87.469,"mean_anomaly_deg":272.6573,"bstar":0.00089352,"rev_number":1075,"period_min":92.942305467501,"perigee_km":417.12527392092,"apogee_km":420.13760169256,"semimajor_km":6796.7684378067,"source":"CELESTRAK","updated_at":"2026-05-25T13:38:21.887321Z"}}}